Location: Castle
(40.7167°S, 175.9500°E)
Time: 02:39:42
(UTC+00:00)

Cosmos 1844 - Pass Details

Date: 04 August 2024
Orbit: 823 x 865 km, 70.9° (Epoch: 07 September)

Event Time Altitude Azimuth Distance (km) Brightness Sun altitude
Exits shadow 17:03:19 48° 202° (SSW) 1,090 4.0 -25.8°
Drops below altitude 10° 17:07:49 10° 164° (SSE) 2,481 6.3 -24.9°
Sets 17:10:22 0° 159° (SSE) 3,429 7.1 -24.5°
